Powrót do katalogu

CZ-6A DEB

AktywnySSO
NORAD 54444·DEBRIS·🇨🇳 China

Wystrzelony Nov 11, 2022 z Taiyuan Satellite Launch Center

Loading…

Następne Przeloty (najbliższe 24 godziny)

TLE

ŚwieżeSource: Space-Track

Epoka: Sep 14, 2026, 21:51 UTC

1 54444U 22151FU  26257.91072712  .00001484  00000-0  35667-3 0  9990
2 54444  98.7180 325.8215 0110355 328.1518  31.3034 14.51371099202003

Śledź CZ-6A DEB w czasie rzeczywistym z AllMySat

Download on the App Store